When you browse on this site, cookies collect data to enhance your experience and personalize the content and advertising you see.
Visit our Privacy Policy to learn more. By continuing to use the site, you agree to this use of cookies and data.
  • In Hungary
  • List of Countries
  • For 7 days
  • Water Temperature
  • Satellite Maps
  • Weather Map
  • News
  • Weather Widgets
  • user-avatar
    Login

    Hourly Weather Calpe

    Today, 16 December, Sunday

    Time Temperature Precipitation Wind Pressure Humidity
    00:00 +12°C° 0 mm 7 mps 762 mmHg 77%
    01:00 +13°C° 0 mm 6 mps 762 mmHg 78%
    02:00 +13°C° 0 mm 6 mps 762 mmHg 79%
    03:00 +11°C° 0 mm 6 mps 762 mmHg 81%
    04:00 +11°C° 0 mm 6 mps 761 mmHg 81%
    05:00 +11°C° 0 mm 6 mps 761 mmHg 81%
    06:00 +10°C° 0 mm 5 mps 761 mmHg 83%
    07:00 +12°C° 0 mm 5 mps 761 mmHg 78%
    08:00 +13°C° 0 mm 5 mps 761 mmHg 73%
    09:00 +14°C° 0 mm 5 mps 761 mmHg 67%
    10:00 +16°C° 0 mm 5 mps 761 mmHg 58%
    11:00 +19°C° 0 mm 5 mps 761 mmHg 48%
    12:00 +22°C° 0 mm 5 mps 761 mmHg 39%
    13:00 +21°C° 0 mm 5 mps 761 mmHg 43%
    14:00 +21°C° 0 mm 6 mps 761 mmHg 48%
    15:00 +21°C° 0 mm 6 mps 761 mmHg 53%
    16:00 +20°C° 0 mm 6 mps 761 mmHg 59%
    17:00 +19°C° 0 mm 6 mps 761 mmHg 64%
    18:00 +16°C° 0 mm 6 mps 762 mmHg 70%
    19:00 +15°C° 0 mm 6 mps 762 mmHg 72%
    20:00 +15°C° 0 mm 7 mps 763 mmHg 73%
    21:00 +14°C° 0 mm 7 mps 764 mmHg 75%
    22:00 +12°C° 0 mm 7 mps 764 mmHg 76%
    23:00 +12°C° 0 mm 8 mps 764 mmHg 77%

    Tomorrow, 17 December, Monday

    Time Temperature Precipitation Wind Pressure Humidity
    00:00 +11°C° 0 mm 8 mps 765 mmHg 78%
    01:00 +11°C° 0 mm 8 mps 765 mmHg 81%
    02:00 +10°C° 0 mm 8 mps 765 mmHg 83%
    03:00 +10°C° 0 mm 8 mps 765 mmHg 86%
    04:00 +9°C° 0 mm 8 mps 766 mmHg 86%
    05:00 +9°C° 0 mm 8 mps 766 mmHg 87%
    06:00 +9°C° 0 mm 7 mps 766 mmHg 88%
    07:00 +9°C° 0 mm 6 mps 767 mmHg 82%
    08:00 +10°C° 0 mm 6 mps 767 mmHg 76%
    09:00 +10°C° 0 mm 5 mps 768 mmHg 70%
    10:00 +13°C° 0 mm 4 mps 768 mmHg 59%
    11:00 +14°C° 0 mm 4 mps 768 mmHg 48%
    12:00 +17°C° 0 mm 3 mps 768 mmHg 37%
    13:00 +17°C° 0 mm 3 mps 767 mmHg 35%
    14:00 +18°C° 0 mm 3 mps 767 mmHg 32%
    15:00 +18°C° 0 mm 2 mps 767 mmHg 30%
    16:00 +16°C° 0 mm 2 mps 767 mmHg 39%
    17:00 +14°C° 0 mm 2 mps 767 mmHg 49%
    18:00 +13°C° 0 mm 2 mps 767 mmHg 58%
    19:00 +12°C° 0 mm 2 mps 767 mmHg 64%
    20:00 +10°C° 0 mm 2 mps 768 mmHg 70%
    21:00 +10°C° 0 mm 2 mps 768 mmHg 76%
    22:00 +9°C° 0 mm 2 mps 768 mmHg 79%
    23:00 +9°C° 0 mm 2 mps 767 mmHg 81%

    Day after tomorrow, 18 December, Tuesday

    Time Temperature Precipitation Wind Pressure Humidity
    00:00 +9°C° 0 mm 2 mps 767 mmHg 83%
    01:00 +9°C° 0 mm 2 mps 767 mmHg 84%
    02:00 +8°C° 0 mm 3 mps 767 mmHg 84%
    03:00 +8°C° 0 mm 3 mps 766 mmHg 84%
    04:00 +8°C° 0 mm 3 mps 766 mmHg 85%
    05:00 +8°C° 0 mm 3 mps 766 mmHg 86%
    06:00 +8°C° 0 mm 3 mps 765 mmHg 87%
    07:00 +9°C° 0 mm 3 mps 765 mmHg 82%
    08:00 +11°C° 0 mm 3 mps 766 mmHg 78%
    09:00 +12°C° 0 mm 3 mps 766 mmHg 74%
    10:00 +13°C° 0 mm 4 mps 765 mmHg 70%
    11:00 +14°C° 0 mm 4 mps 765 mmHg 66%
    12:00 +17°C° 0 mm 4 mps 764 mmHg 63%
    13:00 +17°C° 0 mm 4 mps 764 mmHg 61%
    14:00 +17°C° 0 mm 4 mps 763 mmHg 60%
    15:00 +17°C° 0 mm 4 mps 763 mmHg 58%
    16:00 +15°C° 0 mm 4 mps 763 mmHg 67%
    17:00 +13°C° 0 mm 4 mps 763 mmHg 76%
    18:00 +11°C° 0 mm 4 mps 763 mmHg 85%
    19:00 +11°C° 0 mm 3 mps 763 mmHg 86%
    20:00 +11°C° 0 mm 3 mps 763 mmHg 87%
    21:00 +11°C° 0 mm 3 mps 763 mmHg 88%
    22:00 +11°C° 0 mm 3 mps 763 mmHg 86%
    23:00 +12°C° 0 mm 3 mps 763 mmHg 84%

    19 December, Wednesday

    Time Temperature Precipitation Wind Pressure Humidity
    00:00 +12°C° 0 mm 4 mps 763 mmHg 82%
    01:00 +12°C° 0 mm 4 mps 762 mmHg 79%
    02:00 +12°C° 0 mm 4 mps 762 mmHg 76%
    03:00 +13°C° 0 mm 4 mps 762 mmHg 72%
    04:00 +13°C° 0 mm 3 mps 762 mmHg 72%
    05:00 +13°C° 0 mm 3 mps 762 mmHg 72%
    06:00 +14°C° 0 mm 2 mps 762 mmHg 73%
    07:00 +15°C° 0 mm 2 mps 762 mmHg 70%
    08:00 +15°C° 0 mm 2 mps 763 mmHg 68%
    09:00 +16°C° 0 mm 3 mps 763 mmHg 66%
    10:00 +17°C° 0 mm 3 mps 763 mmHg 63%
    11:00 +18°C° 0 mm 3 mps 763 mmHg 59%
    12:00 +18°C° 0 mm 4 mps 763 mmHg 55%
    13:00 +18°C° 0 mm 4 mps 763 mmHg 49%
    14:00 +18°C° 0 mm 3 mps 763 mmHg 42%
    15:00 +17°C° 0 mm 3 mps 762 mmHg 35%
    16:00 +16°C° 0 mm 3 mps 763 mmHg 39%
    17:00 +14°C° 0 mm 3 mps 763 mmHg 43%
    18:00 +13°C° 0 mm 3 mps 763 mmHg 46%
    19:00 +12°C° 0 mm 3 mps 764 mmHg 49%
    20:00 +12°C° 0 mm 3 mps 764 mmHg 52%
    21:00 +11°C° 0 mm 3 mps 765 mmHg 54%
    22:00 +11°C° 0 mm 3 mps 765 mmHg 57%
    23:00 +10°C° 0 mm 3 mps 765 mmHg 59%

    20 December, Thursday

    Time Temperature Precipitation Wind Pressure Humidity
    00:00 +10°C° 0 mm 3 mps 765 mmHg 62%
    01:00 +10°C° 0 mm 3 mps 765 mmHg 62%
    02:00 +10°C° 0 mm 3 mps 765 mmHg 63%
    03:00 +10°C° 0 mm 3 mps 765 mmHg 63%
    04:00 +10°C° 0 mm 3 mps 765 mmHg 65%
    05:00 +9°C° 0 mm 3 mps 765 mmHg 66%
    06:00 +9°C° 0 mm 3 mps 766 mmHg 67%
    07:00 +10°C° 0 mm 3 mps 766 mmHg 64%
    08:00 +12°C° 0 mm 2 mps 766 mmHg 62%
    09:00 +12°C° 0 mm 2 mps 767 mmHg 59%
    10:00 +14°C° 0 mm 2 mps 767 mmHg 53%
    11:00 +15°C° 0 mm 2 mps 767 mmHg 47%
    12:00 +17°C° 0 mm 2 mps 767 mmHg 41%
    13:00 +17°C° 0 mm 2 mps 766 mmHg 40%
    14:00 +17°C° 0 mm 2 mps 766 mmHg 38%
    15:00 +18°C° 0 mm 2 mps 766 mmHg 36%
    16:00 +16°C° 0 mm 2 mps 766 mmHg 44%
    17:00 +14°C° 0 mm 2 mps 767 mmHg 52%
    18:00 +12°C° 0 mm 2 mps 767 mmHg 60%
    19:00 +11°C° 0 mm 3 mps 767 mmHg 63%
    20:00 +10°C° 0 mm 3 mps 768 mmHg 66%
    21:00 +10°C° 0 mm 3 mps 768 mmHg 68%
    22:00 +10°C° 0 mm 3 mps 768 mmHg 69%
    23:00 +9°C° 0 mm 3 mps 768 mmHg 69%

    21 December, Friday

    Time Temperature Precipitation Wind Pressure Humidity
    00:00 +9°C° 0 mm 3 mps 768 mmHg 70%
    01:00 +9°C° 0 mm 3 mps 768 mmHg 70%
    02:00 +8°C° 0 mm 4 mps 768 mmHg 70%
    03:00 +8°C° 0 mm 4 mps 768 mmHg 70%
    04:00 +8°C° 0 mm 4 mps 768 mmHg 71%
    05:00 +8°C° 0 mm 4 mps 768 mmHg 71%
    06:00 +8°C° 0 mm 4 mps 768 mmHg 72%
    07:00 +10°C° 0 mm 4 mps 768 mmHg 66%
    08:00 +10°C° 0 mm 5 mps 769 mmHg 60%
    09:00 +12°C° 0 mm 5 mps 769 mmHg 54%
    10:00 +14°C° 0 mm 5 mps 769 mmHg 49%
    11:00 +16°C° 0 mm 5 mps 768 mmHg 43%
    12:00 +17°C° 0 mm 5 mps 768 mmHg 38%
    13:00 +19°C° 0 mm 5 mps 768 mmHg 39%
    14:00 +19°C° 0 mm 5 mps 768 mmHg 39%
    15:00 +20°C° 0 mm 5 mps 767 mmHg 40%
    16:00 +17°C° 0 mm 5 mps 768 mmHg 47%
    17:00 +16°C° 0 mm 5 mps 768 mmHg 54%
    18:00 +14°C° 0 mm 5 mps 768 mmHg 60%
    19:00 +14°C° 0 mm 5 mps 768 mmHg 64%
    20:00 +13°C° 0 mm 5 mps 769 mmHg 68%
    21:00 +13°C° 0 mm 5 mps 769 mmHg 72%
    22:00 +13°C° 0 mm 4 mps 769 mmHg 75%
    23:00 +12°C° 0 mm 4 mps 769 mmHg 78%
    Show more